Location: Ostrava
(49.8330°N, 18.2830°E)
Time: 22:39:28
(UTC+02:00)

Cosmos 1400 Rocket - Visible Passes

Search period start: 27 April 2015 00:00
Search period end: 07 May 2015 00:00
Orbit: 527 x 575 km, 81.2° (Epoch: 26 April)

Date Brightness Start Highest point End Pass type
(mag) Time Alt. Az. Time Alt. Az. Time Alt. Az.
27 Apr 4.2 02:43:19 10° N 02:47:14 39° ENE 02:50:24 15° SE visible
27 Apr 4.2 04:20:23 10° NW 04:23:40 22° W 04:26:05 14° SW visible
28 Apr 4.0 02:39:15 10° N 02:43:14 43° ENE 02:45:54 19° SE visible
28 Apr 4.3 04:16:28 10° NW 04:19:36 20° W 04:21:37 15° SW visible
29 Apr 3.8 02:35:10 10° N 02:39:12 47° ENE 02:41:29 23° SE visible
29 Apr 4.5 04:12:33 10° NW 04:15:31 19° W 04:17:11 15° WSW visible
30 Apr 3.6 02:31:05 10° N 02:35:11 53° ENE 02:37:06 28° SE visible
30 Apr 4.6 04:08:40 10° NW 04:11:26 17° W 04:12:48 15° WSW visible
01 May 3.4 02:27:00 10° N 02:31:08 58° ENE 02:32:46 34° SE visible
01 May 4.7 04:04:48 10° NW 04:07:20 15° W 04:08:28 14° WSW visible
02 May 3.2 02:22:56 10° N 02:27:06 65° ENE 02:28:27 40° SE visible
02 May 4.8 04:00:58 10° NW 04:03:14 14° W 04:04:10 13° W visible
03 May 3.0 02:18:51 10° N 02:23:03 72° ENE 02:24:10 46° SSE visible
03 May 4.9 03:57:11 10° WNW 03:59:08 13° W 03:59:53 12° W visible
04 May 5.8 00:40:41 10° NE 00:41:31 11° NE 00:42:33 10° ENE visible
04 May 2.9 02:14:46 10° N 02:18:59 80° ENE 02:19:54 53° SSE visible
04 May 5.0 03:53:31 10° WNW 03:55:00 11° W 03:55:37 11° W visible
05 May 5.6 00:36:07 10° NE 00:37:31 12° ENE 00:39:06 10° E visible
05 May 2.8 02:10:42 10° NNW 02:14:54 88° ENE 02:15:40 59° SSE visible
05 May 5.1 03:50:08 10° WNW 03:50:53 10° W 03:51:23 10° W visible
06 May 5.6 00:31:42 10° NNE 00:33:31 13° ENE 00:35:29 10° E visible
06 May 2.8 02:06:37 10° NNW 02:10:50 83° W 02:11:27 64° S visible
